Location: ??
(35.5052°N, 139.7262°E)
Time: 18:10:26
(UTC+00:00)

SL-4 R/B - Pass Details

Date: 20 June 2021
Orbit: 428 x 662 km, 51.6° (Epoch: 29 July)

Event Time Altitude Azimuth Distance (km) Brightness Sun altitude
Rises 12:15:41 0° 229° (SW) 2,829 5.6 -21.5°
Reaches altitude 10° 12:18:03 10° 230° (SW) 1,891 4.7 -21.8°
Maximum altitude 12:22:22 81° 319° (NW) 559 2.0 -22.3°
Drops below altitude 10° 12:26:21 10° 46° (NE) 1,751 4.7 -22.8°
Sets 12:28:28 0° 48° (NE) 2,600 5.6 -23.0°
